Location: Barrio de Canyet
(41.4665°N, 2.2381°E)
Time: 02:03:09
(UTC+00:00)

Cosmos 2369 - Pass Details

Date: 09 April 2020
Orbit: 840 x 855 km, 71.0° (Epoch: 05 June)

Event Time Altitude Azimuth Distance (km) Brightness Sun altitude
Rises 21:07:57 0° 340° (NNW) 3,402 7.8 -27.8°
Reaches altitude 10° 21:10:30 10° 346° (NNW) 2,464 6.8 -28.2°
Enters shadow 21:15:12 46° 36° (NE) 1,127 4.3 -28.8°
